Location: Newark
(34.3481°N, 134.0494°E)
Time: 14:57:59
(UTC+00:00)

Vanguard 3 - Pass Details

Date: 05 February 2020
Orbit: 508 x 3263 km, 33.3° (Epoch: 22 February)

Event Time Altitude Azimuth Distance (km) Brightness Sun altitude
Rises 02:42:21 0° 200° (SSW) 4,548 11.7 38.8°
Reaches altitude 10° 02:45:30 10° 189° (S) 3,933 11.7 39.0°
Maximum altitude 02:54:39 29° 134° (SE) 3,538 11.5 39.2°
Drops below altitude 10° 03:07:56 10° 83° (E) 5,829 11.6 39.5°
Sets 03:13:54 0° 74° (ENE) 7,097 11.8 39.5°
